Flag for United Kingdom Weather past 2 weeks in London, England, United Kingdom

Now
79 °F

Sunny.


Feels Like: 79 °F
Forecast: 67 / 77 °F
Wind: 5 mph from North

Location: Northolt

Current Time: Jul 26, 2014 at 9:06:42 PM

Latest Report: Jul 26, 2014 at 7:50 PM


Visibility: 10 mi

Pressure: 29.98 "Hg

Humidity: 42%

Dew point: 54 °F

Location of LondonLocation

Historic Weather in London — Graph

°F

London temperature yesterday

Maximum temperature yesterday: 79 °F (at 11:50 AM)
Minimum temperature yesterday: 61 °F (at 4:50 AM)
Average temperature yesterday: 68 °F

Past Weeks' High & Low Weather Summary

 TemperatureHumidityPressure
High86 °F (Jul 18, 1:50 PM)94% (Jul 11, 11:50 PM)30.21 "Hg (Jul 11, 11:50 PM)
Low52 °F (Jul 14, 4:50 AM)30% (Jul 24, 7:50 PM)29.71 "Hg (Jul 13, 12:50 PM)
Average70 °F67%29.99 "Hg
* Reported Jul 11 7:50 PM — Jul 26 7:50 PM, London, Weather by CustomWeather, © 2014

Note: Actual official high and low records may vary slightly from our data, if they occured in-between our weather recording intervals... More about our weather records

Advertising

London weather history for previous 24 hours

 ConditionsComfort  
Time TempWeatherWind HumidityBarometerVisibility
7:50 PM
Jul 26
79 °FSunny.5 mph42%29.98 "Hg10 mi
6:50 PM82 °FSunny.6 mph32%29.98 "Hg10 mi
5:50 PM82 °FSunny.8 mph35%29.98 "Hg10 mi
4:50 PM84 °FSunny.7 mph35%29.98 "Hg10 mi
3:50 PM82 °FSunny.7 mph37%29.98 "Hg10 mi
2:50 PM81 °FSunny.5 mph37%30.01 "Hg10 mi
1:50 PM81 °FSunny.7 mph37%30.01 "Hg10 mi
12:50 PM79 °FSunny.8 mph39%30.01 "Hg10 mi
11:50 AM79 °FSunny.10 mph42%30.01 "Hg10 mi
10:50 AM75 °FSunny.9 mph50%30.04 "Hg10 mi
9:50 AM72 °FSunny.7 mph61%30.04 "Hg10 mi
8:50 AM68 °FSunny.6 mph69%30.04 "Hg10 mi
7:52 AM66 °FPassing clouds.8 mph73%30.04 "HgN/A
6:50 AM64 °FSunny.7 mph73%30.04 "Hg10 mi
5:50 AM64 °FPassing clouds.5 mph73%30.01 "HgN/A
4:50 AM64 °FPassing clouds.8 mph73%30.01 "HgN/A
3:50 AM64 °FOvercast.6 mph83%30.01 "HgN/A
2:50 AM64 °FOvercast.6 mph88%30.01 "HgN/A
1:50 AM64 °FPartly cloudy.6 mph88%30.04 "HgN/A
12:50 AM66 °FPartly cloudy.6 mph83%30.04 "HgN/A
11:50 PM
Jul 25
68 °FClear.7 mph78%30.04 "Hg10 mi
10:50 PM68 °FClear.7 mph73%30.01 "Hg10 mi
9:50 PM70 °FPartly sunny.9 mph73%30.01 "HgN/A
Weather by CustomWeather, © 2014

See weather overviewHow to use our weather pages